SCP
0 0 0 0 0 0 0 -0 0 0 0 0 0 0 0 0 0 0 -0 -0 -0 0 0 0 0 -0 -0 -0 -0 -0 -0 -0 -0 -0 -0 -0 -0 -0 -0 -0 -0 -0 -0 -0 -0 -0 -0 -0 -0
0 0 0 0 0 -0 -0 -0 0 0 0 0 0 0 0 0 -0 0 0 -0 -0 -0 0 0 -0 -0 -0 -0 -0 -0 -0 -0 -0 -0 -0 -0 -0 -0 -0 -0 -0 -0 -0 -0 -0 -0 -0 -0 -0
0 0 0 0 0 -0 -0 -0 -0 0 0 0 0 0 0 0 0 0 0 -0 -0 0 0 0 -0 -0 -0 -0 -0 -0 -0 -0 -0 -0 -0 -0 -0 -0 -0 -0 -0 -0 -0 -0 -0 -0 -0 -0 -0
0 0 0 0 0 -0 -0 -0 -0 -0 -0 0 0 0 0 0 -0 0 0 -0 -0 -0 0 0 -0 -0 -0 -0 -0 -0 -0 -0 -0 -0 -0 -0 -0 -0 -0 -0 -0 -0 -0 -0 -0 -0 -0 -0 -0
0 0 0 0 0 -0 -0 -0 -0 -0 -0 -0 0 0 0 0 -0 -0 -0 -0 -0 -0 -0 -0 -0 -0 -0 -0 -0 -0 -0 -0 -0 -0 -0 -0 -0 -0 -0 -0 -0 -0 -0 -0 -0 -0 -0 -0 -0
0 0 0 0 0 -0 0 -0 -0 0 -0 -0 -0 -0 -0 -0 -0 -0 -0 -0 -0 -0 -0 0 -0 -0 -0 -0 -0 -0 -0 -0 -0 -0 -0 -0 -0 -0 -0 -0 -0 -0 -0 -0 -0 -0 -0 -0 -0
0 0 0 0 0 -0 0 -0 -0 -0 -0 -0 -0 -0 -0 -0 -0 -0 -0 -0 -0 -0 -0 0 0 0 -0 -0 -0 -0 -0 -0 -0 -0 -0 -0 -0 -0 -0 -0 -0 -0 -0 -0 -0 -0 -0 -0 -0
0 0 0 0 0 -0 -0 0 -0 0 0 0 -0 -0 -0 -0 -0 -0 0 -0 0 -0 -0 0 0 0 0 0 -0 -0 -0 -0 -0 -0 -0 -0 -0 -0 -0 -0 -0 -0 -0 -0 -0 -0 -0 -0 -0
0 0 0 0 0 0 0 0 0 0 0 0 0 -0 0 -0 -0 -0 0 0 0 0 0 0 0 0 0 0 0 0 -0 -0 -0 -0 -0 0 0 0 0 0 -0 -0 -0 -0 -0 -0 -0 -0 -0
0 0 0 0 0 0 0 0 0 0 0 0 0 0 -0 -0 -0 -0 -0 0 0 0 0 0 0 0 0 0 0 0 0 0 0 0 0 0 0 0 0 0 0 -0 -0 -0 -0 -0 -0 0 0
0 0 0 0 0 0 0 0 0 0 0 0 -0 -0 -0 -0 -0 -0 -0 0 0 0 0 0 0 0 0 0 0 0 0 0 0 0 0 0 0 0 0 0 0 0 0 0 0 0 0 0 0
0 0 0 0 0 0 0 0 0 0 0 0 0 -0 -0 -0 -0 -0 0 0 0 0 0 0 0 0 0 0 0 0 0 0 0 0 0 0 0 0 0 0 0 0 0 0 0 0 0 0 0
0 0 0 0 0 0 0 0 0 0 0 0 0 -0 -0 -0 -0 0 0 0 0 0 0 0 0 0 0 0 0 0 0 0 0 0 0 0 0 0 0 0 0 0 0 0 0 0 0 0 0
0 0 0 0 0 0 0 0 0 0 0 -0 0 0 -0 0 -0 0 0 0 0 0 0 0 0 0 0 0 0 0 0 0 0 0 0 0 0 0 0 0 0 0 0 0 0 0 0 0 0
0 0 0 0 0 0 0 0 0 0 0 0 0 0 0 -0 0 0 0 0 0 0 0 0 0 0 0 0 0 0 0 0 0 0 0 0 0 0 0 0 0 0 0 0 0 0 0 0 0
0 0 0 0 0 0 0 0 0 0 0 0 0 0 0 0 0 0 0 0 0 0 0 0 0 0 0 0 0 0 0 0 0 0 0 0 0 0 0 0 0 0 0 0 0 0 0 0 0
0 0 0 0 0 0 0 0 0 0 0 0 0 0 0 0 0 0 0 0 0 0 0 0 0 0 0 0 0 0 0 0 0 0 0 0 0 0 0 0 0 0 0 0 0 0 0 0 0
0 0 0 0 0 0 0 0 0 0 0 0 0 0 0 0 0 0 0 0 0 0 0 0 0 0 0 0 0 0 0 0 0 0 0 0 0 0 0 0 0 0 0 0 0 0 0 0 0
0 0 0 0 0 0 0 0 0 0 0 0 0 0 0 0 0 0 0 0 0 0 0 0 0 0 0 0 0 0 0 0 0 0 0 0 0 0 0 0 0 0 0 0 0 0 0 0 0
0 0 0 0 0 0 0 -0 0 0 0 0 0 0 0 0 0 0 0 0 0 0 0 0 0 0 0 0 0 0 0 0 0 0 0 0 0 0 0 0 0 0 0 0 0 0 0 0 0
0 0 0 0 0 0 0 -0 -0 0 0 0 0 0 0 0 0 0 0 0 0 0 0 0 0 0 0 0 0 0 0 0 0 0 0 0 0 0 0 0 0 0 0 0 0 0 0 0 0
0 0 0 0 0 0 0 -0 -0 0 0 0 0 0 0 0 0 0 0 0 0 0 0 0 0 0 0 0 0 0 0 0 0 0 0 0 0 0 0 0 0 0 0 0 0 0 0 0 0
0 0 0 0 0 0 0 0 -0 -0 -0 -0 -0 0 0 0 0 0 0 0 0 0 0 0 0 0 0 0 0 0 0 0 0 0 0 0 0 0 0 0 0 0 0 0 0 0 0 0 0
0 0 0 0 0 0 0 0 -0 0 -0 0 0 0 0 0 0 0 0 0 0 0 0 0 0 0 0 0 0 0 0 0 0 0 0 0 0 0 0 0 0 0 0 0 0 0 0 0 0
0 0 0 0 0 0 0 0 0 0 0 0 0 0 0 0 0 0 0 0 0 0 0 0 0 0 0 0 0 0 0 0 0 0 0 0 0 0 0 0 0 0 0 0 0 0 0 0 0
0 0 0 0 0 0 0 0 0 0 0 0 0 0 0 0 0 0 0 0 0 0 0 0 0 0 0 0 0 0 0 0 0 0 0 0 0 0 0 0 0 0 0 0 0 0 0 0 0
0 0 0 0 0 0 0 0 0 0 0 0 0 0 0 0 0 0 0 0 0 0 0 0 0 0 0 0 0 0 0 0 0 0 0 0 0 0 0 0 0 0 0 0 0 0 0 0 0
0 0 0 0 0 0 0 0 0 0 0 0 -0 -0 0 0 0 0 0 0 0 0 0 0 0 0 0 0 0 0 0 0 0 0 0 0 0 0 0 0 0 0 0 0 0 0 0 0 0
0 0 0 0 0 0 0 0 0 0 0 0 0 0 0 0 0 0 0 0 0 0 0 0 0 0 0 0 0 0 0 0 0 0 0 0 0 0 0 0 0 0 0 0 0 0 0 0 0
0 0 0 0 0 0 0 0 0 0 0 0 0 0 0 0 0 0 0 0 0 0 0 0 0 0 0 0 0 0 0 0 0 0 0 0 0 0 0 0 0 0 0 0 0 0 0 0 0
Wind_Speed_500mb
7 2 7 7 8 9 3 3 9 9 7 9 13 17 15 12 5 6 37 31 29 33 36 34 31 27 24 22 21 21 23 25 27 27 26 26 26 26 29 27 24 21 31 39 43 46 48 50 46
5 5 4 3 7 6 6 6 10 6 16 19 15 10 10 5 10 35 39 31 28 34 38 35 32 29 25 22 21 21 22 23 25 26 27 25 25 25 31 36 27 24 32 38 42 44 45 45 43
7 2 5 7 4 7 7 8 16 17 19 12 8 10 7 8 18 56 37 37 33 33 38 36 32 30 26 22 22 21 21 21 23 24 25 24 25 30 36 35 29 22 22 33 39 42 44 44 41
8 3 2 6 2 9 13 16 32 14 10 11 15 12 15 14 32 33 45 39 31 33 37 35 32 29 26 23 21 19 19 19 19 21 22 24 25 34 32 34 31 19 18 26 33 37 39 38 41
6 1 5 4 3 6 12 33 22 11 17 14 11 11 17 20 22 29 49 38 33 30 35 34 32 30 28 25 22 18 17 16 17 18 20 22 25 31 29 30 25 18 15 25 30 34 37 34 33
3 1 4 4 2 6 8 23 29 20 18 19 10 17 13 24 27 27 51 37 28 33 26 31 33 32 29 26 22 19 17 15 15 15 17 19 21 22 23 21 19 17 20 24 27 31 34 33 28
4 7 7 3 5 4 11 25 14 15 26 17 13 8 18 26 28 42 47 35 31 29 31 32 37 35 31 27 25 21 18 16 14 13 14 16 19 20 19 18 19 22 23 23 24 27 29 27 21
3 7 5 4 6 4 13 13 13 5 9 25 19 9 12 30 36 46 46 39 36 32 31 32 39 38 35 31 26 23 20 17 15 13 14 15 17 18 18 19 22 23 22 23 24 24 24 21 19
1 8 3 6 5 5 20 8 8 9 19 9 17 14 13 29 36 47 53 46 40 38 34 33 41 41 37 33 30 27 23 20 18 15 13 14 15 18 20 21 22 22 23 25 25 23 21 18 17
6 7 8 5 4 4 9 9 13 7 11 8 15 14 19 28 36 46 58 58 53 49 43 39 40 42 41 39 35 34 32 29 24 16 13 13 16 19 22 24 24 25 26 28 29 25 21 17 15
7 9 3 8 10 10 5 4 5 11 6 19 28 32 35 36 35 43 47 56 59 53 47 45 43 42 43 41 39 40 39 36 31 24 19 15 15 17 20 21 24 25 27 27 24 21 17 13 13
2 8 2 3 6 5 4 3 6 20 17 11 9 32 39 45 43 44 48 55 59 55 53 48 47 47 43 40 41 44 45 43 41 38 33 30 24 20 19 17 20 21 22 19 19 17 14 10 13
7 6 1 3 3 2 4 9 10 26 27 28 34 27 42 47 42 42 43 48 52 54 54 56 53 52 51 51 51 50 49 47 48 47 40 35 28 28 19 19 18 19 19 18 17 17 16 14 14
6 2 6 9 7 5 5 7 1 28 17 36 37 30 30 42 44 42 49 53 58 56 54 52 59 57 56 59 59 56 52 48 48 55 46 37 35 35 30 25 29 29 24 24 22 19 19 18 17
7 4 9 16 14 5 7 10 18 43 21 19 23 37 35 40 44 49 50 56 57 62 59 59 60 62 63 62 63 60 54 51 52 53 53 46 42 41 38 39 41 38 31 31 29 28 25 24 22
5 4 2 7 23 9 9 14 14 12 19 36 34 36 36 47 51 47 54 55 55 58 66 67 66 66 67 68 66 64 58 54 54 54 58 56 50 51 47 48 42 42 39 39 36 34 31 29 29
5 6 10 6 11 9 8 10 10 2 17 19 22 30 41 42 52 55 51 55 58 61 70 74 75 74 72 74 72 69 65 62 60 56 59 62 58 58 56 53 54 50 48 44 42 42 38 38 37
11 6 7 8 10 6 7 18 23 43 46 51 53 54 53 51 53 54 53 53 56 63 69 76 80 80 79 76 80 76 73 74 71 65 62 66 61 66 64 69 63 59 53 52 49 48 47 42 41
6 3 5 9 9 10 16 19 21 42 42 57 69 65 66 69 57 52 48 54 59 63 71 77 86 89 86 86 84 81 85 86 82 80 70 68 67 68 71 71 69 68 62 55 58 55 56 53 50
5 1 8 10 5 6 12 25 22 26 39 62 63 75 81 75 66 59 59 62 68 67 67 78 85 90 91 89 87 93 92 90 84 81 75 71 71 69 68 71 75 80 72 71 64 59 62 63 60
5 8 7 11 5 7 9 15 17 10 23 37 49 59 68 73 63 58 57 60 63 74 70 72 79 87 91 89 88 93 97 96 94 92 85 79 77 74 78 73 79 78 80 78 71 70 60 72 70
7 5 8 9 4 7 4 14 13 16 22 16 59 69 70 55 50 49 47 63 59 74 71 71 72 79 85 87 88 92 102 106 108 104 96 83 86 87 86 80 80 81 84 82 74 77 69 83 74
11 5 7 6 5 8 6 6 15 12 14 24 41 52 47 38 34 38 37 36 57 50 67 69 69 73 81 86 91 91 95 103 102 99 94 88 85 91 93 91 85 85 87 91 87 84 84 77 85
17 12 14 11 6 9 16 15 6 10 12 10 11 9 13 14 16 22 31 34 35 38 58 62 61 66 76 85 91 92 92 95 95 94 90 85 83 88 96 96 95 90 89 90 83 94 82 76 94
10 14 1 4 2 15 10 8 13 13 15 8 7 13 17 18 17 19 25 30 33 34 42 54 61 66 70 76 84 85 86 84 87 89 89 86 84 86 95 100 99 96 90 93 81 99 85 86 97
16 16 12 16 9 10 9 14 9 13 15 10 19 17 15 23 20 17 17 14 22 33 42 51 53 55 59 65 73 76 78 80 82 83 84 83 80 76 81 92 101 101 98 95 88 97 78 93 98
12 14 11 5 3 5 9 15 16 18 17 32 49 65 51 21 19 22 25 26 30 35 40 41 44 46 50 55 60 66 71 75 78 79 78 77 74 73 71 77 90 99 99 93 90 94 95 92 90
12 12 4 2 5 8 10 12 14 18 19 19 23 40 37 22 25 21 23 25 23 22 22 27 33 34 38 46 53 58 62 67 71 74 75 74 70 69 66 68 74 85 88 90 91 91 96 87 94
6 7 7 9 10 10 5 12 12 10 5 10 19 24 20 9 12 17 20 16 14 12 11 14 19 22 27 32 39 45 51 56 62 69 72 71 67 66 63 65 68 79 84 87 97 94 88 88 91
6 15 12 9 8 9 6 25 5 13 10 26 22 21 17 12 15 12 11 11 10 11 10 9 11 14 15 19 24 31 38 46 53 60 64 66 67 65 64 64 66 73 80 85 88 89 92 87 99
Wind_Direction_500mb
145 186 271 360 48 65 202 82 134 102 51 84 79 74 114 64 63 169 143 162 176 165 165 160 155 146 138 128 114 105 100 95 88 88 93 102 110 109 106 112 93 76 86 90 91 95 100 101 98
155 220 5 36 90 72 303 154 94 106 126 106 91 68 88 104 98 137 157 179 186 174 168 162 159 153 142 132 126 115 103 94 89 90 93 99 108 106 108 114 105 95 89 92 92 97 102 105 102
148 198 9 101 104 127 161 132 138 115 113 116 103 94 75 107 131 150 153 171 174 172 169 166 163 157 150 140 134 123 111 101 92 88 89 94 101 106 105 113 114 104 95 94 94 97 104 105 94
150 135 333 80 160 314 111 144 125 111 94 110 110 86 92 117 145 158 167 171 175 170 171 169 167 161 157 150 143 131 121 112 101 94 91 94 106 116 112 124 127 127 106 96 98 99 110 108 104
108 91 37 316 270 179 107 140 124 140 153 150 131 161 117 137 164 156 165 178 181 168 169 173 173 170 167 163 157 144 133 121 110 103 99 103 114 127 129 142 151 154 116 106 102 107 115 118 114
75 32 50 283 230 159 104 134 144 157 151 151 152 125 149 174 189 167 164 173 177 166 174 183 180 178 175 172 168 161 151 141 130 118 112 115 123 136 147 153 167 155 127 114 107 114 125 127 126
106 88 212 247 287 187 165 147 151 159 149 165 144 95 148 175 185 160 163 173 173 181 180 189 187 183 183 182 179 175 169 161 149 135 126 123 128 138 149 155 130 127 122 115 114 125 129 132 130
353 95 301 259 265 97 145 120 171 155 172 150 169 155 175 180 164 160 163 173 176 186 189 197 193 190 189 188 187 185 181 176 169 158 146 140 140 141 141 130 127 127 124 120 125 132 134 129 117
159 62 282 270 297 137 147 117 132 109 134 140 160 157 164 169 169 168 169 182 192 194 203 202 201 198 197 196 192 192 191 189 184 174 163 154 149 144 138 131 128 127 126 128 133 133 132 129 123
122 115 228 333 24 84 135 130 171 156 143 154 159 159 171 175 180 182 181 185 194 194 201 205 203 208 201 200 200 199 199 198 195 194 176 168 153 146 139 135 135 136 136 138 143 146 144 139 127
184 179 206 25 56 64 80 119 192 168 220 210 210 188 185 191 194 195 194 199 202 203 200 210 208 204 211 207 209 207 206 200 192 195 194 178 165 154 147 142 143 147 151 154 151 148 149 138 126
163 268 159 64 26 30 70 305 274 216 214 162 315 229 211 209 210 206 204 204 207 214 213 206 213 212 211 212 215 219 212 206 197 200 205 200 176 172 165 159 157 161 161 159 158 159 164 151 146
145 306 298 241 290 234 245 254 249 264 238 244 260 248 223 222 221 219 219 210 215 218 214 210 211 217 214 212 218 220 217 214 201 205 211 205 194 188 194 191 196 188 186 181 178 178 178 177 166
137 55 264 223 228 218 200 257 171 260 244 238 240 243 225 223 226 224 217 215 214 223 223 217 213 211 218 216 219 222 223 219 211 209 213 210 207 205 200 220 202 206 202 199 197 194 191 191 189
91 342 311 237 208 174 206 302 219 268 223 234 234 236 235 233 230 233 239 226 223 222 227 223 221 215 217 222 222 224 226 222 219 213 215 215 213 215 217 210 205 210 212 213 206 201 201 199 194
137 88 12 290 158 187 144 267 269 308 262 247 248 242 241 237 240 247 245 238 231 227 224 226 226 227 218 223 224 226 224 222 221 220 216 219 219 219 220 219 222 220 222 218 215 211 210 211 200
325 213 199 292 159 128 162 251 263 255 334 286 282 257 244 247 240 249 250 244 237 232 226 226 228 228 225 222 223 229 229 226 230 228 220 219 221 223 222 226 224 227 228 223 220 214 216 210 200
207 210 259 219 236 123 194 252 271 273 291 284 282 274 265 256 247 247 249 246 242 236 231 228 229 229 228 228 226 227 229 231 232 232 226 222 223 220 224 223 222 228 229 226 220 219 212 210 201
176 177 220 262 209 153 224 253 262 272 278 275 272 267 263 259 260 249 247 249 244 237 230 231 228 229 228 225 226 222 222 226 230 233 232 226 224 224 223 233 227 231 235 234 221 220 210 205 210
173 252 256 300 166 148 263 265 253 250 256 261 265 270 267 268 264 256 253 250 242 240 236 231 233 233 232 232 229 226 226 231 230 232 232 230 225 228 232 232 233 226 226 229 221 226 216 212 213
204 170 235 222 330 291 301 287 272 276 251 274 271 265 269 266 266 262 253 248 246 236 239 236 236 238 235 237 232 229 227 233 235 235 236 230 234 232 231 233 233 236 233 230 232 233 239 221 212
221 182 217 251 25 243 122 286 288 273 271 276 274 270 267 272 267 265 258 245 245 241 236 238 239 240 238 237 237 234 233 231 235 238 239 234 226 232 234 235 234 237 236 238 237 236 238 228 224
200 157 156 176 178 348 273 252 267 263 285 252 258 269 276 280 273 261 250 253 245 247 237 237 239 241 240 239 241 240 239 239 241 243 243 241 235 231 237 236 234 237 236 236 232 236 236 237 227
147 81 37 35 62 273 201 206 253 204 213 279 282 285 258 272 278 242 231 230 237 237 227 231 237 243 244 244 244 244 242 243 242 243 242 240 238 233 233 236 237 236 236 242 236 243 239 245 238
114 106 339 329 345 239 303 245 228 281 219 214 289 275 262 243 232 229 230 226 231 235 232 235 239 241 242 244 246 248 249 248 248 248 247 244 241 238 233 233 235 236 236 243 235 250 237 242 239
192 161 164 195 202 262 323 244 245 232 268 287 296 297 274 237 244 221 208 220 243 240 240 239 243 246 243 244 246 249 251 251 251 252 251 250 248 247 245 237 233 233 238 239 239 239 248 241 248
203 213 173 53 86 23 233 289 288 274 257 269 273 273 267 262 247 259 262 270 261 256 256 252 250 249 247 247 246 247 249 251 252 255 255 254 253 250 250 246 236 234 236 241 239 239 240 244 243
153 164 94 13 162 246 255 263 237 298 276 295 282 277 290 276 262 268 273 279 267 262 251 246 248 248 248 247 247 248 250 253 255 256 254 253 253 252 251 246 238 233 238 239 238 242 242 247 244
142 181 195 141 157 179 274 258 228 224 4 20 31 43 23 318 279 282 287 264 244 233 244 250 252 252 252 256 257 258 257 255 255 256 257 254 254 253 252 248 241 237 238 240 240 240 243 250 246
186 193 164 146 236 225 171 254 106 118 96 59 31 19 18 349 309 286 253 237 254 275 281 285 281 280 269 266 268 269 268 264 261 260 259 259 257 255 252 247 246 243 240 241 243 245 245 248 248
Wind_Speed_850mb
7 2 7 7 8 9 3 3 9 9 7 9 13 17 15 12 5 6 37 31 29 33 36 34 31 27 24 22 21 21 23 25 27 27 26 26 26 26 29 27 24 21 31 39 43 46 48 50 46
5 5 4 3 7 6 6 6 10 6 16 19 15 10 10 5 10 35 39 31 28 34 38 35 32 29 25 22 21 21 22 23 25 26 27 25 25 25 31 36 27 24 32 38 42 44 45 45 43
7 2 5 7 4 7 7 8 16 17 19 12 8 10 7 8 18 56 37 37 33 33 38 36 32 30 26 22 22 21 21 21 23 24 25 24 25 30 36 35 29 22 22 33 39 42 44 44 41
8 3 2 6 2 9 13 16 32 14 10 11 15 12 15 14 32 33 45 39 31 33 37 35 32 29 26 23 21 19 19 19 19 21 22 24 25 34 32 34 31 19 18 26 33 37 39 38 41
6 1 5 4 3 6 12 33 22 11 17 14 11 11 17 20 22 29 49 38 33 30 35 34 32 30 28 25 22 18 17 16 17 18 20 22 25 31 29 30 25 18 15 25 30 34 37 34 33
3 1 4 4 2 6 8 23 29 20 18 19 10 17 13 24 27 27 51 37 28 33 26 31 33 32 29 26 22 19 17 15 15 15 17 19 21 22 23 21 19 17 20 24 27 31 34 33 28
4 7 7 3 5 4 11 25 14 15 26 17 13 8 18 26 28 42 47 35 31 29 31 32 37 35 31 27 25 21 18 16 14 13 14 16 19 20 19 18 19 22 23 23 24 27 29 27 21
3 7 5 4 6 4 13 13 13 5 9 25 19 9 12 30 36 46 46 39 36 32 31 32 39 38 35 31 26 23 20 17 15 13 14 15 17 18 18 19 22 23 22 23 24 24 24 21 19
1 8 3 6 5 5 20 8 8 9 19 9 17 14 13 29 36 47 53 46 40 38 34 33 41 41 37 33 30 27 23 20 18 15 13 14 15 18 20 21 22 22 23 25 25 23 21 18 17
6 7 8 5 4 4 9 9 13 7 11 8 15 14 19 28 36 46 58 58 53 49 43 39 40 42 41 39 35 34 32 29 24 16 13 13 16 19 22 24 24 25 26 28 29 25 21 17 15
7 9 3 8 10 10 5 4 5 11 6 19 28 32 35 36 35 43 47 56 59 53 47 45 43 42 43 41 39 40 39 36 31 24 19 15 15 17 20 21 24 25 27 27 24 21 17 13 13
2 8 2 3 6 5 4 3 6 20 17 11 9 32 39 45 43 44 48 55 59 55 53 48 47 47 43 40 41 44 45 43 41 38 33 30 24 20 19 17 20 21 22 19 19 17 14 10 13
7 6 1 3 3 2 4 9 10 26 27 28 34 27 42 47 42 42 43 48 52 54 54 56 53 52 51 51 51 50 49 47 48 47 40 35 28 28 19 19 18 19 19 18 17 17 16 14 14
6 2 6 9 7 5 5 7 1 28 17 36 37 30 30 42 44 42 49 53 58 56 54 52 59 57 56 59 59 56 52 48 48 55 46 37 35 35 30 25 29 29 24 24 22 19 19 18 17
7 4 9 16 14 5 7 10 18 43 21 19 23 37 35 40 44 49 50 56 57 62 59 59 60 62 63 62 63 60 54 51 52 53 53 46 42 41 38 39 41 38 31 31 29 28 25 24 22
5 4 2 7 23 9 9 14 14 12 19 36 34 36 36 47 51 47 54 55 55 58 66 67 66 66 67 68 66 64 58 54 54 54 58 56 50 51 47 48 42 42 39 39 36 34 31 29 29
5 6 10 6 11 9 8 10 10 2 17 19 22 30 41 42 52 55 51 55 58 61 70 74 75 74 72 74 72 69 65 62 60 56 59 62 58 58 56 53 54 50 48 44 42 42 38 38 37
11 6 7 8 10 6 7 18 23 43 46 51 53 54 53 51 53 54 53 53 56 63 69 76 80 80 79 76 80 76 73 74 71 65 62 66 61 66 64 69 63 59 53 52 49 48 47 42 41
6 3 5 9 9 10 16 19 21 42 42 57 69 65 66 69 57 52 48 54 59 63 71 77 86 89 86 86 84 81 85 86 82 80 70 68 67 68 71 71 69 68 62 55 58 55 56 53 50
5 1 8 10 5 6 12 25 22 26 39 62 63 75 81 75 66 59 59 62 68 67 67 78 85 90 91 89 87 93 92 90 84 81 75 71 71 69 68 71 75 80 72 71 64 59 62 63 60
5 8 7 11 5 7 9 15 17 10 23 37 49 59 68 73 63 58 57 60 63 74 70 72 79 87 91 89 88 93 97 96 94 92 85 79 77 74 78 73 79 78 80 78 71 70 60 72 70
7 5 8 9 4 7 4 14 13 16 22 16 59 69 70 55 50 49 47 63 59 74 71 71 72 79 85 87 88 92 102 106 108 104 96 83 86 87 86 80 80 81 84 82 74 77 69 83 74
11 5 7 6 5 8 6 6 15 12 14 24 41 52 47 38 34 38 37 36 57 50 67 69 69 73 81 86 91 91 95 103 102 99 94 88 85 91 93 91 85 85 87 91 87 84 84 77 85
17 12 14 11 6 9 16 15 6 10 12 10 11 9 13 14 16 22 31 34 35 38 58 62 61 66 76 85 91 92 92 95 95 94 90 85 83 88 96 96 95 90 89 90 83 94 82 76 94
10 14 1 4 2 15 10 8 13 13 15 8 7 13 17 18 17 19 25 30 33 34 42 54 61 66 70 76 84 85 86 84 87 89 89 86 84 86 95 100 99 96 90 93 81 99 85 86 97
16 16 12 16 9 10 9 14 9 13 15 10 19 17 15 23 20 17 17 14 22 33 42 51 53 55 59 65 73 76 78 80 82 83 84 83 80 76 81 92 101 101 98 95 88 97 78 93 98
12 14 11 5 3 5 9 15 16 18 17 32 49 65 51 21 19 22 25 26 30 35 40 41 44 46 50 55 60 66 71 75 78 79 78 77 74 73 71 77 90 99 99 93 90 94 95 92 90
12 12 4 2 5 8 10 12 14 18 19 19 23 40 37 22 25 21 23 25 23 22 22 27 33 34 38 46 53 58 62 67 71 74 75 74 70 69 66 68 74 85 88 90 91 91 96 87 94
6 7 7 9 10 10 5 12 12 10 5 10 19 24 20 9 12 17 20 16 14 12 11 14 19 22 27 32 39 45 51 56 62 69 72 71 67 66 63 65 68 79 84 87 97 94 88 88 91
6 15 12 9 8 9 6 25 5 13 10 26 22 21 17 12 15 12 11 11 10 11 10 9 11 14 15 19 24 31 38 46 53 60 64 66 67 65 64 64 66 73 80 85 88 89 92 87 99
Wind_Direction_850mb
145 186 271 360 48 65 202 82 134 102 51 84 79 74 114 64 63 169 143 162 176 165 165 160 155 146 138 128 114 105 100 95 88 88 93 102 110 109 106 112 93 76 86 90 91 95 100 101 98
155 220 5 36 90 72 303 154 94 106 126 106 91 68 88 104 98 137 157 179 186 174 168 162 159 153 142 132 126 115 103 94 89 90 93 99 108 106 108 114 105 95 89 92 92 97 102 105 102
148 198 9 101 104 127 161 132 138 115 113 116 103 94 75 107 131 150 153 171 174 172 169 166 163 157 150 140 134 123 111 101 92 88 89 94 101 106 105 113 114 104 95 94 94 97 104 105 94
150 135 333 80 160 314 111 144 125 111 94 110 110 86 92 117 145 158 167 171 175 170 171 169 167 161 157 150 143 131 121 112 101 94 91 94 106 116 112 124 127 127 106 96 98 99 110 108 104
108 91 37 316 270 179 107 140 124 140 153 150 131 161 117 137 164 156 165 178 181 168 169 173 173 170 167 163 157 144 133 121 110 103 99 103 114 127 129 142 151 154 116 106 102 107 115 118 114
75 32 50 283 230 159 104 134 144 157 151 151 152 125 149 174 189 167 164 173 177 166 174 183 180 178 175 172 168 161 151 141 130 118 112 115 123 136 147 153 167 155 127 114 107 114 125 127 126
106 88 212 247 287 187 165 147 151 159 149 165 144 95 148 175 185 160 163 173 173 181 180 189 187 183 183 182 179 175 169 161 149 135 126 123 128 138 149 155 130 127 122 115 114 125 129 132 130
353 95 301 259 265 97 145 120 171 155 172 150 169 155 175 180 164 160 163 173 176 186 189 197 193 190 189 188 187 185 181 176 169 158 146 140 140 141 141 130 127 127 124 120 125 132 134 129 117
159 62 282 270 297 137 147 117 132 109 134 140 160 157 164 169 169 168 169 182 192 194 203 202 201 198 197 196 192 192 191 189 184 174 163 154 149 144 138 131 128 127 126 128 133 133 132 129 123
122 115 228 333 24 84 135 130 171 156 143 154 159 159 171 175 180 182 181 185 194 194 201 205 203 208 201 200 200 199 199 198 195 194 176 168 153 146 139 135 135 136 136 138 143 146 144 139 127
184 179 206 25 56 64 80 119 192 168 220 210 210 188 185 191 194 195 194 199 202 203 200 210 208 204 211 207 209 207 206 200 192 195 194 178 165 154 147 142 143 147 151 154 151 148 149 138 126
163 268 159 64 26 30 70 305 274 216 214 162 315 229 211 209 210 206 204 204 207 214 213 206 213 212 211 212 215 219 212 206 197 200 205 200 176 172 165 159 157 161 161 159 158 159 164 151 146
145 306 298 241 290 234 245 254 249 264 238 244 260 248 223 222 221 219 219 210 215 218 214 210 211 217 214 212 218 220 217 214 201 205 211 205 194 188 194 191 196 188 186 181 178 178 178 177 166
137 55 264 223 228 218 200 257 171 260 244 238 240 243 225 223 226 224 217 215 214 223 223 217 213 211 218 216 219 222 223 219 211 209 213 210 207 205 200 220 202 206 202 199 197 194 191 191 189
91 342 311 237 208 174 206 302 219 268 223 234 234 236 235 233 230 233 239 226 223 222 227 223 221 215 217 222 222 224 226 222 219 213 215 215 213 215 217 210 205 210 212 213 206 201 201 199 194
137 88 12 290 158 187 144 267 269 308 262 247 248 242 241 237 240 247 245 238 231 227 224 226 226 227 218 223 224 226 224 222 221 220 216 219 219 219 220 219 222 220 222 218 215 211 210 211 200
325 213 199 292 159 128 162 251 263 255 334 286 282 257 244 247 240 249 250 244 237 232 226 226 228 228 225 222 223 229 229 226 230 228 220 219 221 223 222 226 224 227 228 223 220 214 216 210 200
207 210 259 219 236 123 194 252 271 273 291 284 282 274 265 256 247 247 249 246 242 236 231 228 229 229 228 228 226 227 229 231 232 232 226 222 223 220 224 223 222 228 229 226 220 219 212 210 201
176 177 220 262 209 153 224 253 262 272 278 275 272 267 263 259 260 249 247 249 244 237 230 231 228 229 228 225 226 222 222 226 230 233 232 226 224 224 223 233 227 231 235 234 221 220 210 205 210
173 252 256 300 166 148 263 265 253 250 256 261 265 270 267 268 264 256 253 250 242 240 236 231 233 233 232 232 229 226 226 231 230 232 232 230 225 228 232 232 233 226 226 229 221 226 216 212 213
204 170 235 222 330 291 301 287 272 276 251 274 271 265 269 266 266 262 253 248 246 236 239 236 236 238 235 237 232 229 227 233 235 235 236 230 234 232 231 233 233 236 233 230 232 233 239 221 212
221 182 217 251 25 243 122 286 288 273 271 276 274 270 267 272 267 265 258 245 245 241 236 238 239 240 238 237 237 234 233 231 235 238 239 234 226 232 234 235 234 237 236 238 237 236 238 228 224
200 157 156 176 178 348 273 252 267 263 285 252 258 269 276 280 273 261 250 253 245 247 237 237 239 241 240 239 241 240 239 239 241 243 243 241 235 231 237 236 234 237 236 236 232 236 236 237 227
147 81 37 35 62 273 201 206 253 204 213 279 282 285 258 272 278 242 231 230 237 237 227 231 237 243 244 244 244 244 242 243 242 243 242 240 238 233 233 236 237 236 236 242 236 243 239 245 238
114 106 339 329 345 239 303 245 228 281 219 214 289 275 262 243 232 229 230 226 231 235 232 235 239 241 242 244 246 248 249 248 248 248 247 244 241 238 233 233 235 236 236 243 235 250 237 242 239
192 161 164 195 202 262 323 244 245 232 268 287 296 297 274 237 244 221 208 220 243 240 240 239 243 246 243 244 246 249 251 251 251 252 251 250 248 247 245 237 233 233 238 239 239 239 248 241 248
203 213 173 53 86 23 233 289 288 274 257 269 273 273 267 262 247 259 262 270 261 256 256 252 250 249 247 247 246 247 249 251 252 255 255 254 253 250 250 246 236 234 236 241 239 239 240 244 243
153 164 94 13 162 246 255 263 237 298 276 295 282 277 290 276 262 268 273 279 267 262 251 246 248 248 248 247 247 248 250 253 255 256 254 253 253 252 251 246 238 233 238 239 238 242 242 247 244
142 181 195 141 157 179 274 258 228 224 4 20 31 43 23 318 279 282 287 264 244 233 244 250 252 252 252 256 257 258 257 255 255 256 257 254 254 253 252 248 241 237 238 240 240 240 243 250 246
186 193 164 146 236 225 171 254 106 118 96 59 31 19 18 349 309 286 253 237 254 275 281 285 281 280 269 266 268 269 268 264 261 260 259 259 257 255 252 247 246 243 240 241 243 245 245 248 248